Location: Bost
(46.3374°N, 2.8735°E)
Time: 15:37:57
(UTC+00:00)

Daily predictions for brighter satellites

Satellite Brightness Start Highest point End
(mag) Time Altitude Azimuth Time Altitude Azimuth Time Altitude Azimuth
NOSS 3-1 (A) 3.5 17:49:22 10° SSW 17:54:41 56° ESE 18:00:50 10° NE
STARLINK-71 4.0 17:50:56 10° WSW 17:54:54 59° NNW 17:58:53 10° NE
STARLINK-1034 4.1 17:51:19 10° SW 17:55:17 47° SE 17:59:16 10° ENE
Cosmos 1862 Rocket 3.9 17:51:34 10° N 17:55:42 41° ENE 17:59:49 10° SSE
STARLINK-79 3.9 17:52:20 10° WSW 17:56:19 61° NNW 18:00:19 10° ENE
COSMO-SKYMED 1 2.6 17:52:13 10° NNE 17:56:34 70° ESE 18:00:53 10° S
STARLINK-52 3.2 17:53:26 10° NW 17:56:48 59° NNE 18:00:08 10° ESE
STARLINK-1048 3.4 17:53:41 10° WSW 17:56:58 62° NNW 18:00:17 10° NE
Okean-O 3.0 17:53:26 10° S 17:57:52 73° WSW 18:02:19 10° NNW
STARLINK-78 4.0 17:54:02 10° WSW 17:58:00 60° NNW 18:02:00 10° ENE
Cosmos 1707 Rocket 3.7 17:53:39 10° N 17:58:08 86° W 18:02:36 10° S
STARLINK-1049 3.4 17:55:24 10° WSW 17:58:40 60° NNW 18:01:59 10° NE
STARLINK-60 3.6 17:56:01 10° WNW 17:59:16 60° SW 18:02:31 10° SE
STARLINK-57 4.0 17:55:48 10° WSW 17:59:46 57° NNW 18:03:45 10° NE
CENTAUR R/B 4.4 17:54:41 10° NW 18:00:05 22° N 18:06:02 10° NE
STARLINK-1068 4.0 17:56:14 10° SW 18:00:15 51° SE 18:04:16 10° ENE
STARLINK-1051 3.5 17:57:09 10° WSW 18:00:26 59° NNW 18:03:43 10° NE
STARLINK-1028 3.5 17:57:33 10° WSW 18:00:50 58° NNW 18:04:07 10° NE
STARLINK-64 4.2 17:57:26 10° W 18:00:52 41° NNW 18:04:19 10° NE
FALCON 9 DEB 3.1 17:57:35 10° WNW 18:01:02 80° NNE 18:04:28 10° ESE
STARLINK-49 4.0 17:57:20 10° WSW 18:01:18 58° NNW 18:05:17 10° NE
STARLINK-1021 3.5 17:59:19 10° WSW 18:02:36 57° NNW 18:05:54 10° NE
STARLINK-27 4.0 17:59:00 10° WSW 18:02:57 57° NNW 18:06:57 10° NE
Cosmos 2369 Rocket 2.3 17:57:26 10° S 18:02:59 63° ESE 18:08:38 10° NNE
Cosmos 1812 2.6 17:59:18 10° N 18:03:11 73° E 18:07:02 10° SSE
STARLINK-1019 3.6 18:01:05 10° WSW 18:04:22 55° NNW 18:07:40 10° NE
Cosmos 921 Rocket 3.1 18:00:02 10° SSW 18:04:32 80° ESE 18:09:04 10° NNE
STARLINK-74 4.1 18:00:40 10° WSW 18:04:37 56° NNW 18:08:36 10° NE
Ariane Rocket 3.9 18:00:50 10° ESE 18:05:05 27° ENE 18:09:21 10° N
CZ-4 R/B 4.5 18:01:02 10° SSE 18:05:10 89° ENE 18:09:20 10° NNW
STARLINK-1012 3.6 18:02:54 10° WSW 18:06:11 54° NNW 18:09:28 10° NE
STARLINK-39 4.1 18:02:20 10° WSW 18:06:17 54° NNW 18:10:15 10° NE
STARLINK-31 4.1 18:04:01 10° W 18:07:57 53° NNW 18:11:55 10° NE
Okean 1-7 4.4 18:05:48 10° NNE 18:08:57 19° ENE 18:12:06 10° ESE
STARLINK-1026 3.7 18:06:30 10° WSW 18:09:46 51° NNW 18:13:02 10° NE
STARLINK-69 4.2 18:05:53 10° W 18:09:48 50° NNW 18:13:45 10° NE
STARLINK-1014 3.5 18:06:41 10° WSW 18:10:08 62° NNW 18:13:36 10° NE
STARLINK-1060 3.8 18:06:05 10° SW 18:10:10 60° SE 18:14:13 10° ENE
STARLINK-21 4.2 18:07:21 10° W 18:11:17 51° NNW 18:15:14 10° NE
STARLINK-1013 3.7 18:08:19 10° W 18:11:35 50° NNW 18:14:52 10° NE
ATLAS 3B R/B 4.5 18:07:28 10° NW 18:11:42 17° N 18:15:59 10° NE
STARLINK-45 4.3 18:09:16 10° W 18:13:10 48° NNW 18:17:05 10° NE
STARLINK-1009 3.8 18:10:08 10° W 18:13:23 49° NNW 18:16:40 10° NE
CZ-2D R/B 3.3 18:10:07 10° SSE 18:13:57 60° ENE 18:17:48 10° N
STARLINK-70 4.3 18:10:51 10° W 18:14:45 48° NNW 18:18:41 10° NE
STARLINK-1030 3.7 18:11:04 10° SW 18:15:10 65° SE 18:19:02 11° ENE
STARLINK-1015 3.8 18:11:59 10° W 18:15:14 48° NNW 18:18:28 10° NE
Cosmos 1833 4.4 18:10:14 10° NNW 18:15:55 55° ENE 18:21:32 10° SE
STARLINK-76 4.2 18:12:22 10° W 18:16:17 49° NNW 18:20:13 10° NE
STARLINK-23 4.3 18:14:02 10° W 18:17:56 48° NNW 18:21:47 10° NE
STARLINK-32 4.3 18:15:43 10° W 18:19:37 47° NNW 18:23:24 11° NE
NOSS 2-3 (C) 3.7 18:15:23 10° SSW 18:19:37 61° ESE 18:24:37 10° NE
STARLINK-1020 3.6 18:16:00 10° SW 18:20:07 70° SE 18:23:48 13° ENE
Cosmos 1862 4.4 18:17:09 10° SSW 18:21:01 48° WNW 18:24:52 10° N
SJ 16-02 2.6 18:17:45 10° N 18:21:15 22° ENE 18:23:51 14° ESE
STARLINK-40 4.3 18:17:22 10° W 18:21:16 46° NNW 18:24:58 11° NE
STARLINK-1047 3.6 18:18:23 10° SW 18:22:33 74° SSE 18:26:11 13° ENE
STARLINK-44 4.3 18:19:03 10° W 18:22:56 46° NNW 18:26:35 12° NE
H-2A R/B 3.0 18:19:41 10° ESE 18:24:15 29° ENE 18:28:55 10° N
STARLINK-37 4.4 18:20:51 10° W 18:24:43 44° NNW 18:28:16 12° NE
STARLINK-1052 3.6 18:20:59 10° SW 18:25:06 75° SSE 18:28:36 14° ENE
ARGOS 4.1 18:21:14 10° ESE 18:25:41 27° ENE 18:30:07 10° N
STARLINK-36 4.4 18:22:22 10° W 18:26:15 44° NNW 18:29:45 12° NE
STARLINK-68 4.5 18:24:17 10° W 18:28:08 42° NNW 18:31:32 13° NE
CSL-04 Rocket 3.7 18:23:08 10° SSE 18:28:41 90° ENE 18:34:12 10° NNW
STARLINK-63 4.5 18:25:50 10° W 18:29:41 42° NNW 18:33:01 13° NE
Cosmos 2263 4.2 18:24:45 10° SSW 18:30:31 74° ESE 18:36:17 10° NNE
STARLINK-35 4.4 18:27:23 10° W 18:31:14 42° NNW 18:34:31 14° NE
Cosmos 1346 Rocket 2.8 18:27:31 10° S 18:31:25 56° E 18:35:19 10° NNE
BREEZE-M DEB (TANK) 3.0 18:29:09 10° WNW 18:31:47 87° SSW 18:37:09 13° ESE
STARLINK-51 4.5 18:29:04 10° W 18:32:54 42° NNW 18:36:06 14° NE
STARLINK-1023 4.1 18:31:23 10° W 18:34:22 36° NNW 18:36:38 15° NE
STARLINK-30 4.5 18:30:45 10° W 18:34:35 41° NNW 18:37:42 14° NE
STARLINK-43 4.2 18:31:11 10° NW 18:34:38 35° NNE 18:36:38 20° ENE
STARLINK-1033 3.6 18:30:53 10° WSW 18:35:01 86° SSE 18:38:08 17° ENE
YAOGAN 1 3.0 18:30:55 10° S 18:35:12 65° WSW 18:39:32 10° NNW
Cosmos 1633 Rocket 4.0 18:34:52 10° SSW 18:39:06 51° WNW 18:43:21 10° N
Cosmos 1464 Rocket 4.3 18:33:39 10° SSE 18:39:37 44° E 18:45:37 10° NNE
Cosmos 44 Rocket 4.0 18:36:20 10° NNW 18:40:39 33° NE 18:42:58 22° E
OE (NEXTSAT) 4.3 18:37:34 10° W 18:41:03 86° S 18:42:51 27° E
STARLINK-1035 3.7 18:37:57 10° WSW 18:42:13 80° NNW 18:45:14 19° ENE
CRYOSAT 2 4.4 18:38:59 10° S 18:43:53 89° ENE 18:48:49 10° N
STARLINK-1024 3.6 18:40:52 10° WSW 18:45:01 83° NNW 18:47:44 21° ENE
Cosmos 2297 Rocket 3.8 18:43:00 10° N 18:46:31 16° NE 18:47:51 15° ENE
Aureole 2 Rocket 4.2 18:44:43 10° WSW 18:46:58 24° WNW 18:49:16 10° N
NOSS 3-1 (C) 4.2 18:41:49 10° WSW 18:47:15 50° NW 18:53:38 10° NE
Cosmos 1933 Rocket 3.4 18:42:53 10° S 18:47:17 78° E 18:51:41 10° NNE
Cosmos 2285 Rocket 4.2 18:44:25 10° NNW 18:50:49 77° WSW 18:57:12 10° SSE
STARLINK-1039 4.4 18:48:04 10° SSW 18:51:46 32° SE 18:52:44 28° ESE
Meteor 1-20 Rocket 4.1 18:46:29 10° S 18:51:53 63° E 18:57:22 10° NNE
STARLINK-1027 3.9 18:48:38 10° WSW 18:52:53 68° NNW 18:55:28 23° NE
STARLINK-1007 4.4 18:50:01 10° W 18:52:58 31° NNW 18:54:28 21° NNE
Meteor 1-18 Rocket 4.3 18:48:57 10° N 18:54:48 58° ENE 19:00:32 10° SSE
STARLINK-1032 3.7 18:50:50 10° WSW 18:54:58 73° NNW 18:57:17 25° NE
Cosmos 405 3.0 18:53:06 10° N 18:56:36 54° ENE 18:58:22 25° SE
STARLINK-1045 4.3 18:52:57 10° SSW 18:56:44 35° SE 18:57:32 32° ESE
Cosmos 1943 Rocket 3.4 18:51:48 10° SW 18:57:05 43° NW 19:02:22 10° NNE
COSMOS 2487 2.2 18:54:04 10° NNW 18:57:32 74° ENE 18:59:29 24° SSE
ADEOS Rocket 3.6 18:50:03 10° NNE 18:57:53 89° WNW 19:05:33 10° SSW
MOS 1 4.3 18:53:18 10° SSE 18:58:50 58° ENE 19:04:23 10° N
CZ-2C R/B 3.5 18:54:03 10° SE 18:59:36 48° ENE 19:05:03 10° N
STARLINK-1011 3.8 18:55:48 10° WSW 18:59:56 69° NNW 19:02:03 27° NE
Cosmos 2034 Rocket 4.2 18:54:22 10° SSE 19:00:09 44° E 19:05:57 10° NNE
Cosmos 468 Rocket 4.2 18:56:26 10° S 19:01:30 48° ESE 19:06:36 10° NNE
STARLINK-1050 4.1 18:57:53 10° SSW 19:01:44 39° SE 19:02:26 36° ESE
Lacrosse 5 rocket 3.2 18:58:37 10° NW 19:02:14 23° N 19:04:00 18° NE
Timation 2 Rocket 4.3 18:55:38 10° NNW 19:02:26 58° NE 19:07:09 21° SE
Okean 1 3.3 18:58:29 10° N 19:02:27 55° ENE 19:04:38 24° SSE
Cosmos 1340 3.8 19:00:31 10° SSW 19:04:07 44° WNW 19:07:45 10° N
STARLINK-1036 3.9 19:00:50 10° WSW 19:04:57 65° NNW 19:06:51 30° NE
Cosmos 2227 Rocket 3.6 19:01:21 10° N 19:05:20 19° NE 19:05:52 19° NE
BREEZE-M DEB (TANK) 2.9 19:03:22 10° WNW 19:05:46 54° NNE 19:06:06 49° NE
STARLINK-1055 4.0 19:02:46 10° SSW 19:06:41 42° SE 19:07:11 40° ESE
HJ-1C 3.9 19:03:27 10° S 19:06:42 59° W 19:09:59 10° NNW
SPOT 3 Rocket 4.0 19:05:25 30° ESE 19:07:10 40° ENE 19:12:01 10° N
STARLINK 1040 4.5 19:05:01 10° WNW 19:07:20 22° N 19:07:42 22° N
STARLINK-1044 3.9 19:05:49 10° WSW 19:09:55 61° NNW 19:11:37 32° NE
Meteor 1-14 Rocket 4.1 19:05:01 10° S 19:10:26 59° E 19:15:54 10° NNE
STARLINK-1031 4.1 19:07:10 10° WSW 19:11:10 55° NNW 19:12:45 32° NE
Meteor 2-11 Rocket 4.3 19:05:09 10° S 19:11:13 72° E 19:17:17 10° NNE
STARLINK-1022 3.9 19:07:42 10° SW 19:11:39 46° SE 19:12:00 45° SE
Lacrosse 4 Rocket 4.4 19:11:34 10° NW 19:12:38 11° NNW 19:13:42 10° NNW
Gbstr 26 Del rocket 3.1 19:09:19 10° SW 19:13:21 59° SE 19:14:28 44° E
Cosmos 1898 Rocket 3.3 19:08:41 10° NNW 19:13:54 73° ENE 19:17:01 24° SSE
STARLINK-1029 4.4 19:12:44 10° WNW 19:15:34 29° NNW 19:16:03 27° N
STARLINK-1042 3.8 19:12:36 10° SW 19:16:36 50° SE 19:16:45 49° SE
STARLINK-1037 4.1 19:15:46 10° WSW 19:19:50 55° NNW 19:21:08 38° NNE
SJ-11-01 4.5 19:15:18 10° S 19:19:57 72° WSW 19:24:39 10° NNW
STARLINK-1056 3.7 19:17:32 10° SW 19:21:33 54° SE 19:21:33 54° SE
Cosmos 1092 Rocket 4.3 19:17:03 10° N 19:23:07 45° ENE 19:24:43 38° ESE
STARLINK-1059 4.2 19:20:51 10° W 19:24:54 52° NNW 19:25:59 40° NNE
USA 234 4.1 19:21:54 25° ENE 19:24:56 38° N 19:30:51 10° NW
STARLINK-1054 3.7 19:22:28 10° SW 19:26:20 57° SSE 19:26:20 57° SSE
Cosmos 1763 Rocket 3.4 19:21:46 10° S 19:26:55 65° ESE 19:32:10 10° NNE
Cosmos 1656 Rocket 4.1 19:22:16 10° SW 19:27:44 62° WNW 19:33:19 10° NNE
Cosmos 2219 3.8 19:24:30 10° NNW 19:29:49 36° NE 19:29:58 36° ENE
STARLINK-1057 4.3 19:25:53 10° W 19:29:55 50° NNW 19:30:47 42° NNE
Cosmos 1570 Rocket 4.1 19:25:22 10° S 19:30:09 51° ESE 19:30:09 51° ESE
Meteor 2-4 Rocket 3.8 19:24:36 10° N 19:30:27 58° ENE 19:32:13 42° SE
Meteor 1-19 Rocket 4.1 19:24:38 10° N 19:30:30 87° E 19:35:17 15° S
STARLINK-1062 3.7 19:27:25 10° SW 19:31:07 59° S 19:31:07 59° S
NOSS 3-2 (A) 4.5 19:24:49 10° NNW 19:31:42 42° NE 19:34:00 35° ENE
STARLINK-1034 4.3 19:30:53 10° W 19:34:54 47° NNW 19:35:33 43° N
STARLINK-1053 3.8 19:32:21 10° SW 19:35:53 58° SSW 19:35:53 58° SSW
Resurs 01 Rocket 3.2 19:38:51 23° NNE 19:38:51 23° NNE 19:40:51 10° N
Cosmos 858 Rocket 4.3 19:32:20 10° NNW 19:37:36 86° ENE 19:39:03 49° SSE
STARLINK-1068 4.3 19:35:54 10° W 19:39:54 45° NNW 19:40:19 44° N
Cosmos 1602 4.2 19:37:06 10° SSW 19:40:57 60° WNW 19:44:47 10° N
STARLINK-1061 4.0 19:37:18 10° SW 19:40:40 56° SSW 19:40:40 56° SSW
Ariane Rocket 4.1 19:38:59 10° S 19:43:50 44° W 19:48:43 10° NNW
Cosmos 220 Rocket 4.4 19:40:46 10° SSW 19:44:02 51° SSW 19:44:02 51° SSW
SL-08 RB Rocket 3.5 19:45:57 84° NNE 19:45:57 84° NNE 19:50:20 10° NNW
SJ-6B 3.2 19:46:42 57° WNW 19:46:42 57° WNW 19:49:59 10° NNW
STARLINK-1067 4.2 19:42:15 10° SW 19:45:26 51° SW 19:45:26 51° SW
Okean 1-7 4.2 19:42:38 10° NNW 19:46:44 43° W 19:50:50 10° SSW
Cosmos 2369 Rocket 4.2 19:42:47 10° WSW 19:47:28 26° NW 19:52:13 10° N
Lacrosse 5 2.4 19:43:50 10° SSW 19:47:37 45° S 19:47:37 45° S
SL-24 DEB 4.4 19:47:01 33° S 19:49:06 74° W 19:53:46 10° N
MetOp-A 4.0 19:50:10 72° ESE 19:50:27 74° ENE 19:55:49 10° N
STARLINK-1058 4.4 19:47:12 10° SW 19:50:12 47° SW 19:50:12 47° SW
ARGOS Delta rocket 3.6 19:51:19 76° WSW 19:51:21 76° W 19:55:49 10° NNW
CENTAUR R/B 3.8 19:46:03 10° NNW 19:53:09 38° NNE 19:54:46 35° ENE
Cosmos 1869 Rocket 4.4 19:55:16 10° SSW 19:59:32 49° WNW 20:03:48 10° N
Meteor 1-13 Rocket 4.2 19:53:42 10° N 19:59:12 67° NE 19:59:12 67° NE
SJ 16-02 2.4 19:55:51 10° NNW 20:00:01 42° WSW 20:00:55 37° SW
H-2A R/B 3.1 19:58:20 10° S 20:03:28 45° W 20:08:42 10° NNW
ATLAS 3B R/B 3.8 19:59:13 10° NNW 20:04:49 27° NNE 20:05:09 27° NNE
ARGOS 3.9 20:01:41 17° S 20:05:38 50° W 20:10:56 10° NNW
Cosmos 1627 Rocket 4.4 20:00:13 10° N 20:05:54 67° NE 20:05:54 67° NE
Cosmos 1937 Rocket 4.0 20:02:31 10° NNW 20:07:39 55° WSW 20:08:35 48° SW
Cosmos 44 Rocket 4.4 20:17:47 10° NW 20:21:43 39° W 20:21:43 39° W
Cosmos 2026 Rocket 4.2 20:24:19 10° N 20:29:34 65° NNW 20:29:34 65° NNW
USA 238 DEB 3.8 20:23:52 10° NW 20:30:43 75° NNE 20:30:43 75° NNE
USA 238 3.8 20:23:59 10° NW 20:30:47 74° NNE 20:30:47 74° NNE
Cosmos 2297 Rocket 3.1 20:25:55 10° NNW 20:29:41 42° NNW 20:29:41 42° NNW
Lacrosse 5 rocket 3.8 20:37:53 10° NW 20:39:39 22° NW 20:39:39 22° NW
Cosmos 2227 Rocket 3.5 20:44:31 10° NNW 20:47:42 35° NNW 20:47:42 35° NNW
BREEZE-M DEB (TANK) 4.1 20:44:21 10° WNW 20:56:33 59° WNW 20:56:33 59° WNW
USA 234 4.0 21:09:15 47° NNW 21:09:15 47° NNW 21:13:52 10° NW
CENTAUR R/B 3.8 21:36:40 10° NW 21:41:57 48° NW 21:41:57 48° NW
ATLAS 3B R/B 4.4 21:49:42 10° NW 21:52:24 26° NW 21:52:24 26° NW
